DEFRE LIEE-EDDC

Flight info

Callsign DEFRE
Flight time N/A
Altitude 43000
Route KOVAS DCT GIGGI DCT MADKA DCT MOULE DCT IRBAK DCT EVKIV DCT OTKEK DCT SOTOV T101 ANDEC/N0493F450 T101 BETOS/N0493F430 M726 MAH L132 AGNAV/N0494F450 DCT GAVLI T203 OSKAN OSKAN4B
Aircraft C750/M-SBDE3FGHRWXY/S

Departure

Time 2026-04-28 13:02
Airport Cagliari Elmas Airport (LIEE)

Arrival

Time N/A
Airport Dresden Airport (EDDC)
Time Latitude Longitude Altitude Speed Heading
2026-04-28 12:49 39.24993 9.05986 18 ft 0 kts 227°
2026-04-28 12:58 39.24992 9.05984 18 ft 2 kts 227°
2026-04-28 12:58 39.24974 9.05960 18 ft 8 kts 227°
2026-04-28 12:58 39.24999 9.05876 18 ft 16 kts 317°
2026-04-28 12:58 39.25093 9.05767 18 ft 17 kts 318°
2026-04-28 12:59 39.25183 9.05661 18 ft 17 kts 319°
2026-04-28 12:59 39.25270 9.05560 18 ft 16 kts 317°
2026-04-28 12:59 39.25362 9.05452 18 ft 22 kts 317°
2026-04-28 12:59 39.25481 9.05315 18 ft 22 kts 318°
2026-04-28 13:00 39.25597 9.05182 18 ft 21 kts 320°
2026-04-28 13:00 39.25708 9.05052 18 ft 21 kts 316°
2026-04-28 13:00 39.25816 9.04926 18 ft 20 kts 320°
2026-04-28 13:00 39.25923 9.04804 18 ft 20 kts 317°
2026-04-28 13:01 39.26024 9.04686 18 ft 19 kts 320°
2026-04-28 13:01 39.26119 9.04567 18 ft 18 kts 292°
2026-04-28 13:01 39.26130 9.04452 18 ft 10 kts 270°
2026-04-28 13:01 39.26092 9.04387 18 ft 11 kts 204°
2026-04-28 13:02 39.26002 9.04440 18 ft 22 kts 137°
2026-04-28 13:02 39.25663 9.04828 18 ft 111 kts 140°
2026-04-28 13:02 39.24918 9.05683 265 ft 162 kts 140°
2026-04-28 13:02 39.24111 9.06615 1380 ft 158 kts 137°
2026-04-28 13:03 39.23288 9.07572 2251 ft 173 kts 137°
2026-04-28 13:03 39.22382 9.08596 3145 ft 188 kts 138°
2026-04-28 13:03 39.21379 9.09754 4025 ft 205 kts 137°
2026-04-28 13:03 39.20311 9.11004 5125 ft 214 kts 138°
2026-04-28 13:04 39.19204 9.12257 6271 ft 217 kts 148°
2026-04-28 13:04 39.17791 9.12697 7304 ft 220 kts 191°
2026-04-28 13:04 39.16492 9.11776 8312 ft 225 kts 230°
2026-04-28 13:04 39.15546 9.10207 9381 ft 228 kts 229°
2026-04-28 13:05 39.14494 9.08700 10414 ft 230 kts 228°
2026-04-28 13:05 39.13521 9.07081 11356 ft 234 kts 248°
2026-04-28 13:05 39.13477 9.05169 12588 ft 215 kts 293°
2026-04-28 13:05 39.14336 9.03625 13343 ft 224 kts 315°
2026-04-28 13:06 39.15505 9.02226 13841 ft 240 kts 315°
2026-04-28 13:06 39.16753 9.00738 14559 ft 247 kts 316°
2026-04-28 13:06 39.18019 8.99258 15338 ft 249 kts 316°
2026-04-28 13:06 39.19310 8.97757 16126 ft 251 kts 317°
2026-04-28 13:07 39.20600 8.96261 16878 ft 252 kts 317°
2026-04-28 13:07 39.21897 8.94754 17587 ft 255 kts 317°
2026-04-28 13:07 39.23313 8.93355 18259 ft 259 kts 337°
2026-04-28 13:07 39.25099 8.92980 18913 ft 265 kts 358°
2026-04-28 13:08 39.26947 8.92887 19559 ft 269 kts 354°
2026-04-28 13:08 39.28907 8.92727 19575 ft 297 kts 355°
2026-04-28 13:08 39.31049 8.92572 19734 ft 319 kts 355°
2026-04-28 13:08 39.33314 8.92411 20320 ft 326 kts 355°
2026-04-28 13:09 39.35584 8.92244 21036 ft 329 kts 355°
2026-04-28 13:09 39.37850 8.92080 21739 ft 331 kts 355°
2026-04-28 13:09 39.40194 8.91910 22215 ft 340 kts 355°
2026-04-28 13:09 39.42561 8.91855 22700 ft 348 kts
2026-04-28 13:10 39.44842 8.92922 23255 ft 356 kts 28°
2026-04-28 13:10 39.47057 8.94563 23291 ft 376 kts 27°
2026-04-28 13:10 39.49390 8.96215 23387 ft 393 kts 27°
2026-04-28 13:10 39.51811 8.97943 23844 ft 399 kts 27°
2026-04-28 13:11 39.54239 8.99678 24449 ft 402 kts 27°
2026-04-28 13:11 39.56725 9.01450 25039 ft 404 kts 27°
2026-04-28 13:11 39.59174 9.03204 25561 ft 407 kts 27°
2026-04-28 13:11 39.61681 9.04995 26047 ft 411 kts 27°
2026-04-28 13:12 39.64210 9.06703 26488 ft 413 kts 19°
2026-04-28 13:12 39.67017 9.07434 26947 ft 412 kts
2026-04-28 13:12 39.69861 9.07851 27441 ft 415 kts
2026-04-28 13:12 39.72710 9.08274 27900 ft 417 kts
2026-04-28 13:13 39.75604 9.08713 28314 ft 420 kts
2026-04-28 13:13 39.78492 9.09144 28746 ft 423 kts
2026-04-28 13:13 39.81441 9.09589 29172 ft 426 kts
2026-04-28 13:13 39.84389 9.10032 29585 ft 428 kts
2026-04-28 13:14 39.87358 9.10480 29977 ft 430 kts
2026-04-28 13:14 39.90305 9.10925 30350 ft 433 kts
2026-04-28 13:14 39.93333 9.11379 30732 ft 435 kts
2026-04-28 13:14 39.96346 9.11836 31109 ft 437 kts
2026-04-28 13:15 39.99394 9.12295 31455 ft 440 kts
2026-04-28 13:15 40.02500 9.12765 31800 ft 442 kts
2026-04-28 13:15 40.05580 9.13233 32167 ft 443 kts
2026-04-28 13:15 40.08679 9.13703 32481 ft 446 kts
2026-04-28 13:16 40.11803 9.14176 32782 ft 448 kts
2026-04-28 13:16 40.14890 9.14644 33082 ft 451 kts
2026-04-28 13:16 40.15934 9.14802 33193 ft 451 kts
2026-04-28 13:16 40.21191 9.15603 33703 ft 454 kts
2026-04-28 13:17 40.24371 9.16086 33997 ft 456 kts